Voltar ao catálogo

STARLINK-35999

AtivoComunicaçõesVLEO
NORAD 66951·PAYLOAD·🇺🇸 United States

Lançado Dec 7, 2025 de Vandenberg Space Force Base

Loading…

Próximas Passagens (próximas 24 horas)

TLE

AtualizadoSource: CelesTrak SupGP

Época: Sep 14, 2026, 21:10 UTC

1 66951C 25286AC  26257.88243056  .00014113  00000+0  41685-3 0  2571
2 66951  53.1583 196.0497 0001367  88.3634 285.4474 15.34392940    14

Acompanhe STARLINK-35999 em tempo real com AllMySat

Download on the App Store